Weather in Novaya Sloboda

Russia / Tambov Oblast     53°01′44″N   41°17′16″E
temp.,
°C
wind,
m/s
gust,
m/s
humid.,
%
clouds,
%
prec.,
mm/h
press.,
hPa
HPBL,
m
1 march, mon
mon100:00−9nne129677 0.1 102021
03:00−10n229674 0.1 102221
06:00−11n229660 0.0 102321
09:00−10n229567 0.0 102677
12:00−7nw238969 0.0 1026282
15:00−6w349274 0.0 1025262
18:00−7wsw349458 0.0 102456
21:00−6wsw5119452 0.0 1023271
2 march, tue
tue200:00−5wsw6139497 0.1 1020367
03:00−3wsw7139398 0.2 1018413
06:00−1wsw71493100 0.1 1014510
09:00+1wsw71493100 0.1 1012634
12:00+1w71398100 0.1 1009567
15:00+1wnw61198100 0.3 1008492
18:000wnw51095100 0.4 1008486
21:00−2nw41192100 0.4 1009295
3 march, wed
wed300:00−4nw4109198 0.0 1009220
03:00−3nw5119497 0.1 1010415
06:00−4nw6139393 0.1 1010556
09:00−4nw7119196 0.3 1013785
12:00−4nnw71186100 0.1 1014809
15:00−4nw71084100 0.1 1015827
18:00−6wnw489160 0.0 1015190
21:00−3w5119468 0.1 1016398
4 march, thu
thu400:00−4w5119283 0.1 1015326
03:00−3w6119487 0.1 1014482
06:00−4wsw6119498 0.0 1013354
09:00−2wsw7138499 0.0 1010799
12:000wsw9158898 0.0 1007672
15:00+1wsw9178598 0.0 1005839
18:000wsw91878100 0.0 1003789
21:00+1wsw8177890 0.0 1002793
5 march, fri
fri500:00+1w7149797 0.1 1002623
03:00−1wnw5119499 0.5 1004440
06:00−4nw3791100 0.0 1007255
09:00−5n2493100 0.0 1009174
12:00−3nnw228889 0.0 1010289
15:00−3n228693 0.0 1012301
18:00−4n2291100 0.0 101331
21:00−6ene228892 0.0 101421